Home   Weather   Bunbury   Past weeks

Flag for Australia Past Weather in Bunbury, Western Australia, Australia — Yesterday and Last 2 Weeks

Now
65 °F

Mild.


Feels Like: 65 °F
Forecast: 56 / 69 °F
Wind: 6 mph from Southwest

Location: Bunbury

Current Time: Dec 5, 2016 at 10:41:55 am

Latest Report: Dec 5, 2016 at 9:00 am


Visibility: N/A

Pressure: 30.01 "Hg

Humidity: 50%

Dew Point: 46 °F

Location of BunburyLocation

Past Weather in Bunbury — Graph

°F

Bunbury Temperature Yesterday

Maximum temperature yesterday: 69 °F (at 2:00 pm)
Minimum temperature yesterday: 45 °F (at 5:00 am)
Average temperature yesterday: 60 °F

High & Low Weather Summary for the Past Weeks

 TemperatureHumidityPressure
High89 °F (Nov 26, 2:00 pm)93% (Nov 21, 6:00 am)30.17 "Hg (Nov 21, 6:00 am)
Low40 °F (Nov 21, 5:00 am)21% (Nov 25, 3:00 pm)29.75 "Hg (Dec 3, 3:00 am)
Average66 °F59%30.00 "Hg
* Reported Nov 20 9:00 am — Dec 5 9:00 am, Bunbury, Weather by CustomWeather, © 2016

Note: Actual official high and low records may vary slightly from our data, if they occured in-between our weather recording intervals... More about our weather records

Advertising

Bunbury Weather History for the Previous 24 Hours

Scroll right to see more
 ConditionsComfort  
Time TempWeatherWind HumidityBarometerVisibility
9:00 am
Mon, Dec 5
65 °FMild.6 mph50%30.01 "HgN/A
8:00 am65 °FMild.3 mph51%30.01 "HgN/A
6:00 am51 °FCool.No wind93%30.00 "HgN/A
5:00 am46 °FCool.1 mph92%30.00 "HgN/A
3:00 am48 °FCool.1 mph88%29.97 "HgN/A
2:00 am48 °FCool.No wind86%29.98 "HgN/A
12:00 am52 °FCool.3 mph78%29.97 "HgN/A
11:00 pm
Sun, Dec 4
54 °FCool.3 mph72%29.98 "HgN/A
9:00 pm58 °FCool.7 mph64%29.97 "HgN/A
8:00 pm61 °FRefreshingly cool.7 mph60%29.96 "HgN/A
6:00 pm66 °FMild.13 mph54%29.94 "HgN/A
5:00 pm67 °FMild.14 mph51%29.93 "HgN/A
3:00 pm68 °FMild.14 mph49%29.93 "HgN/A
2:00 pm69 °FMild.14 mph47%29.94 "HgN/A
12:00 pm67 °FMild.8 mph48%29.97 "HgN/A
11:00 am66 °FMild.5 mph49%29.98 "HgN/A
Weather by CustomWeather, © 2016

See weather overviewHow to use our weather pages